Theta_e
324 323 324 325 323 322 323 323 321 324 330 329 322 321 323 323 321 322 324 326 329 330 334 337 337 337 335 336 338 339 343 346 346 348 350 349 350 350 351 352 352 350 346 343 343 342 342 343 343 343 343 344 344 344 345 345 345 345 345 346 346 346 346
323 325 324 324 325 325 324 320 322 328 330 329 325 321 322 322 320 321 322 323 325 324 327 334 335 335 334 334 336 336 340 346 347 348 348 349 350 350 351 352 352 350 346 343 342 342 342 342 342 343 343 343 344 344 345 345 345 345 345 346 346 346 347
323 325 324 322 324 326 325 324 327 327 323 323 324 322 321 321 320 320 320 321 323 322 324 331 334 334 336 335 335 334 337 345 349 348 348 348 349 350 351 352 352 353 349 345 342 342 343 343 342 342 342 343 344 343 345 345 344 344 344 345 346 346 347
323 323 321 318 320 324 325 325 328 327 323 322 323 323 322 321 320 320 319 319 322 326 329 332 335 336 336 335 336 336 335 342 348 349 347 349 350 350 351 351 352 351 347 345 343 342 343 343 342 342 342 343 343 343 344 344 345 345 345 345 346 346 347
321 319 320 319 320 322 321 321 322 324 324 324 324 324 323 321 319 320 320 319 320 328 335 335 335 337 336 335 335 336 335 336 343 349 349 349 351 351 350 351 351 349 347 347 348 347 345 344 343 342 342 343 343 343 344 344 345 345 345 345 346 345 346
318 319 323 323 322 323 323 321 320 322 323 322 321 321 323 322 320 319 320 319 320 329 337 335 335 335 334 335 335 335 336 334 336 347 349 348 351 351 350 350 351 352 351 350 352 352 350 348 347 344 344 345 344 343 344 344 344 345 345 345 345 346 346
322 324 325 324 323 324 324 324 324 324 324 321 318 318 321 321 321 321 320 319 323 331 336 335 335 335 334 334 335 334 334 333 338 348 350 348 350 351 350 349 349 351 353 352 352 354 352 351 350 347 347 349 347 344 344 344 344 345 345 346 345 346 346
326 326 326 326 325 324 322 323 325 324 323 323 322 323 324 322 320 321 320 318 323 331 339 339 336 335 334 333 334 335 336 337 343 349 348 348 350 351 350 349 347 349 352 353 350 350 351 351 352 350 347 348 348 346 346 346 345 344 345 350 349 346 345
323 323 324 324 323 323 322 322 324 324 325 326 324 326 325 322 321 322 320 318 323 332 342 344 342 338 335 333 334 337 341 343 346 349 349 347 349 351 349 347 348 349 352 353 348 347 349 348 350 349 347 348 347 346 347 348 347 346 349 354 354 347 343
320 320 320 321 321 323 322 322 324 324 324 324 323 322 320 319 322 323 321 320 325 333 339 340 341 339 335 335 334 333 338 344 346 349 351 349 348 348 346 346 349 351 353 353 348 346 347 347 347 347 346 347 347 345 345 346 350 353 355 358 356 348 343
321 321 324 326 325 323 320 321 322 323 324 325 323 320 317 320 323 322 323 326 325 330 335 335 336 336 334 335 334 332 337 345 347 348 349 349 348 344 342 345 350 352 352 351 347 345 345 345 345 344 343 345 345 344 344 347 354 358 359 359 357 351 346
325 326 328 329 328 324 322 322 322 322 324 324 322 319 319 324 321 318 326 331 326 328 334 335 335 335 334 334 333 334 336 343 349 350 348 348 348 346 343 342 346 351 351 348 346 345 344 343 343 343 343 344 344 345 346 350 356 359 360 360 357 354 351
327 328 328 328 328 327 326 324 323 324 324 323 321 320 323 325 321 320 327 331 328 330 333 333 334 334 334 334 334 332 331 337 349 354 352 349 350 349 344 338 340 347 349 347 346 346 345 343 342 342 343 344 345 346 348 351 355 359 361 359 357 356 355
327 328 328 328 327 326 326 325 325 325 325 324 323 323 324 325 323 324 328 330 331 332 332 332 333 333 333 332 332 332 330 336 347 354 353 350 349 349 345 339 337 340 344 345 345 346 344 341 341 342 342 343 343 345 346 348 351 357 359 358 356 356 355
325 328 328 327 327 325 324 325 326 326 325 325 324 324 325 325 325 326 327 327 330 332 332 333 332 331 332 332 333 333 333 336 343 350 351 349 349 349 346 342 338 337 342 345 345 344 341 338 340 341 340 342 342 344 346 346 348 354 355 354 356 356 355
322 326 327 327 327 326 323 323 325 326 325 324 324 325 326 325 324 326 324 323 328 331 331 332 332 331 331 333 334 335 336 339 343 348 350 349 349 349 346 343 340 338 340 342 341 340 339 338 340 340 340 342 342 342 345 346 349 353 354 353 353 353 353
321 325 326 326 325 322 320 322 326 327 326 326 326 326 327 327 326 325 323 324 329 331 330 332 333 330 330 335 338 338 341 345 347 349 350 350 350 349 345 342 340 339 341 343 343 340 339 339 339 340 341 341 341 342 343 346 349 352 353 352 350 350 354
322 325 326 326 323 319 321 325 328 328 327 327 326 326 327 327 327 327 326 328 332 332 331 332 334 332 333 337 340 340 343 349 351 351 350 350 351 352 349 347 345 345 349 350 346 340 338 339 340 340 341 340 341 342 342 344 347 349 350 349 348 352 355
324 325 326 323 320 322 327 331 332 329 328 328 327 328 328 328 328 328 329 331 331 331 332 333 333 333 335 338 342 345 346 347 349 350 350 351 352 352 352 352 350 348 348 346 344 339 338 340 340 340 341 341 341 341 342 343 344 345 346 345 348 353 354
327 326 324 322 324 327 329 333 334 332 332 330 327 326 326 327 329 329 329 330 329 331 333 332 332 337 341 342 343 343 341 340 342 343 345 349 351 352 352 349 347 346 342 340 340 338 338 340 340 340 340 341 341 342 342 343 343 344 345 345 348 350 350
330 326 322 324 326 326 329 336 338 337 336 335 333 330 330 330 329 328 330 330 329 330 331 331 335 340 342 341 339 338 338 336 335 336 340 344 348 350 346 342 342 342 339 338 338 339 339 339 339 340 340 340 342 342 342 343 343 343 344 345 346 347 347
329 326 325 326 324 324 331 338 338 337 336 337 337 335 334 334 329 329 330 331 331 333 331 332 340 341 338 336 334 335 338 336 334 336 340 342 345 347 344 343 344 341 338 339 339 338 339 339 339 340 341 341 342 342 343 343 343 344 345 346 346 347 347
327 326 327 327 323 328 338 339 336 336 336 336 336 331 330 334 336 334 330 330 333 334 332 336 343 341 335 333 333 337 341 341 339 340 342 344 347 349 347 346 345 341 338 339 339 338 339 340 341 341 340 339 338 338 338 340 341 344 345 346 347 348 348
325 326 327 326 326 334 340 336 334 337 336 337 334 327 328 339 345 342 340 337 335 332 334 342 344 339 334 334 338 342 343 341 341 343 345 348 349 349 347 344 341 339 339 339 339 340 341 340 339 337 335 334 332 332 334 336 339 342 344 346 348 348 348
325 326 325 325 329 337 338 335 336 337 335 335 332 328 334 344 344 342 343 342 341 339 342 344 342 340 340 342 344 343 342 344 346 347 347 348 349 350 349 345 340 338 340 340 339 339 337 335 334 333 331 331 330 331 333 336 339 343 346 347 348 349 351
324 325 325 326 330 336 337 335 337 336 334 333 333 335 341 344 343 343 343 340 340 343 344 343 342 342 344 345 345 346 347 350 351 352 353 354 355 354 348 343 341 341 341 339 336 335 333 332 332 332 332 331 331 332 334 337 340 343 345 347 348 350 352
324 325 326 326 329 335 337 336 337 337 336 336 338 341 344 344 343 345 345 343 341 342 344 345 346 346 349 351 353 354 355 356 357 357 357 356 353 349 345 345 346 344 339 337 336 336 336 335 334 333 332 332 332 333 334 336 338 339 342 344 345 348 351
324 322 326 330 333 336 337 337 337 338 337 337 338 340 343 344 344 346 348 349 346 346 349 351 351 353 355 356 356 356 355 355 355 354 353 351 349 348 347 347 345 341 338 339 340 340 338 337 336 335 334 333 334 334 334 334 335 336 337 338 340 345 348
328 327 331 337 338 338 337 337 338 336 335 335 336 338 341 342 343 345 348 350 349 351 353 354 354 356 356 355 356 356 356 356 356 355 353 352 350 347 344 342 341 340 340 340 339 337 337 336 335 335 335 335 335 334 335 335 335 336 337 338 341 346 348
334 335 338 339 339 338 337 336 335 334 333 333 334 336 338 339 341 343 345 346 348 349 350 352 353 354 353 354 355 356 357 358 358 358 357 356 353 348 344 341 340 339 338 337 336 337 337 336 335 335 335 335 335 335 335 336 338 340 342 344 346 349 349
332 333 337 338 338 338 337 336 334 333 332 333 333 335 336 337 339 341 341 342 344 344 345 346 347 347 349 352 353 353 353 352 352 352 352 351 349 347 344 341 338 337 337 337 336 335 335 335 334 334 334 334 335 336 338 338 340 342 345 346 347 348 348
334 336 339 339 338 336 334 333 333 333 332 332 332 333 335 335 336 337 337 338 341 343 344 343 342 342 344 346 348 349 348 346 343 342 341 339 338 338 337 336 335 334 333 334 334 333 334 336 336 335 337 338 339 340 341 341 342 342 343 344 345 345 346
336 337 338 337 337 335 331 330 330 330 330 331 331 332 333 334 335 336 335 336 338 341 343 345 346 345 344 343 344 345 345 342 337 334 334 335 334 334 334 333 332 331 333 334 335 336 338 340 341 341 342 342 342 341 342 341 341 340 340 342 343 344 345
335 335 336 337 337 336 333 330 329 328 329 330 329 330 331 332 333 335 335 334 335 337 339 342 346 347 347 346 344 342 342 339 333 330 329 329 329 329 330 329 329 330 334 336 337 339 341 343 343 343 342 342 342 341 341 341 340 339 340 341 343 343 344
332 332 335 336 335 334 331 329 326 326 327 328 328 329 330 330 330 332 333 333 333 333 334 336 338 341 343 343 342 342 340 336 331 329 327 326 327 328 328 327 328 328 330 333 335 337 339 341 342 342 341 341 340 340 340 339 339 339 340 342 342 342 342
330 330 332 333 331 330 328 327 326 325 325 326 326 327 328 329 328 328 330 330 330 330 331 332 333 335 336 336 336 338 338 335 331 329 327 326 328 330 329 329 330 330 332 334 336 337 338 339 339 340 340 339 339 339 338 338 339 341 342 342 342 342 341
329 329 329 330 329 328 327 327 327 326 325 325 324 325 325 327 326 326 326 326 327 328 329 330 330 331 332 333 334 334 335 334 333 333 334 332 332 333 333 331 330 332 334 335 336 337 337 337 337 337 337 337 337 337 338 340 342 343 342 340 340 341 341
Wind_Speed
17 17 18 19 15 9 9 13 15 13 13 13 11 11 11 11 12 10 8 8 8 8 9 12 13 14 14 13 12 13 14 15 17 19 22 25 27 29 32 33 35 39 44 45 45 45 43 42 42 42 42 40 40 40 39 38 37 37 37 36 35 34 34
18 18 19 20 19 14 8 11 14 11 9 12 11 10 9 11 12 10 10 12 11 9 9 11 15 18 17 16 14 14 13 15 18 20 22 24 26 28 31 33 35 40 46 48 47 46 45 43 42 42 41 40 39 39 39 38 37 37 38 37 36 35 34
17 18 17 15 19 22 15 9 11 11 9 10 10 9 10 12 11 10 13 15 12 11 9 8 12 15 16 16 14 13 11 14 18 20 21 23 24 26 29 32 33 35 41 47 49 48 45 44 43 41 40 39 39 39 38 37 37 36 36 37 37 36 35
16 15 14 12 14 20 18 11 9 12 11 10 10 9 8 11 11 10 14 14 10 10 11 11 11 11 11 12 10 9 9 12 17 18 19 21 24 27 29 31 33 36 40 44 47 49 47 46 44 42 39 39 39 38 38 38 37 35 36 36 37 36 36
15 12 12 15 14 15 15 12 11 12 9 9 11 11 10 11 12 10 11 12 9 8 10 13 14 11 11 11 11 10 11 14 16 17 18 21 24 28 30 30 32 36 38 38 40 44 45 46 45 43 41 40 40 39 38 38 37 37 37 37 37 37 36
12 12 14 18 19 17 14 12 13 13 10 10 12 12 12 12 12 11 11 11 9 7 7 10 14 14 14 14 14 12 14 18 16 15 17 20 23 26 27 28 27 28 31 32 32 34 38 42 44 44 42 40 40 41 39 38 38 38 38 37 37 37 37
10 13 15 18 20 21 17 14 15 15 13 12 12 11 11 12 13 14 13 12 10 7 7 9 12 13 14 17 16 14 17 20 14 11 14 17 20 22 22 24 25 24 25 27 28 31 35 39 40 43 43 40 40 41 39 39 39 38 38 38 38 38 38
9 13 14 15 17 19 17 15 15 16 16 16 14 12 11 11 13 14 13 13 10 7 6 7 9 13 16 20 20 17 18 19 12 9 12 14 16 18 19 21 22 22 23 26 31 34 37 39 39 41 43 41 40 40 39 38 38 38 37 36 37 39 39
8 11 12 12 13 14 13 14 17 18 20 22 18 14 12 12 15 17 15 12 10 8 7 6 8 13 16 17 18 16 16 17 13 8 10 12 14 15 17 19 21 22 23 27 34 37 39 40 40 41 43 42 42 42 40 39 37 37 35 33 35 39 40
10 11 11 10 11 12 11 14 19 21 24 25 19 13 13 13 14 17 15 11 11 12 12 11 11 13 12 12 15 17 17 17 14 9 9 11 13 14 16 19 22 24 25 28 34 36 39 40 40 41 41 41 42 42 42 40 36 33 31 30 34 40 42
12 11 10 10 11 12 14 17 21 21 22 25 20 13 13 12 11 14 15 13 14 15 15 15 15 14 13 12 14 18 19 18 15 13 13 12 13 14 15 18 22 25 27 31 34 36 38 39 38 39 39 39 39 40 41 39 33 29 28 31 35 40 42
18 16 14 13 14 15 17 19 21 20 19 22 21 17 17 15 12 13 14 15 17 17 17 16 15 15 14 12 13 18 20 18 13 13 15 13 13 15 16 18 22 26 30 34 35 36 37 37 37 37 36 37 37 38 39 37 31 27 28 32 35 38 41
22 22 20 18 16 15 17 19 20 22 22 22 21 21 22 20 14 13 14 16 19 19 19 20 17 14 13 14 17 22 24 21 12 10 13 14 14 16 18 20 23 26 31 35 37 37 37 36 36 36 36 36 36 36 36 35 32 28 27 31 35 37 39
21 24 24 23 21 19 19 20 21 22 24 25 23 22 24 24 21 19 18 19 19 18 18 21 21 21 21 21 22 23 25 24 16 11 13 14 15 18 21 23 25 27 31 35 37 37 37 36 36 36 36 35 35 35 34 35 34 30 29 33 35 35 37
17 22 22 23 23 22 21 21 22 23 23 24 25 23 22 22 22 23 24 22 18 15 15 18 22 25 25 22 22 23 26 27 21 14 14 16 17 19 21 24 25 27 30 34 36 37 37 35 34 34 34 32 32 33 32 33 34 31 33 35 32 32 35
12 17 20 22 22 21 21 21 21 23 22 20 20 20 21 21 20 22 23 19 15 14 15 17 19 22 21 19 21 23 25 26 23 17 16 18 20 21 23 24 26 28 33 36 38 38 35 33 34 33 31 30 29 29 30 31 30 30 32 33 32 31 31
10 14 18 19 19 17 16 17 19 21 21 21 20 20 21 23 21 18 17 15 13 14 15 17 18 21 21 19 21 24 23 23 23 19 18 20 20 21 24 26 28 31 33 35 36 36 32 31 31 29 27 26 25 26 28 28 27 28 28 30 31 28 24
8 10 9 10 14 14 11 11 16 21 22 22 22 20 21 22 19 16 15 14 14 14 16 18 18 19 20 21 23 26 23 19 19 18 18 17 16 17 19 23 27 28 29 29 31 31 29 28 27 25 24 24 23 24 26 26 26 27 27 27 27 23 21
7 8 6 8 12 11 6 4 8 13 16 20 22 21 21 21 19 19 19 18 17 15 16 18 18 18 20 20 20 22 19 16 15 16 16 15 15 15 17 20 23 27 29 29 29 28 27 26 26 25 25 24 23 23 24 25 25 25 25 25 24 21 21
5 6 9 10 9 6 6 3 3 4 8 14 17 19 22 22 21 21 20 20 20 17 16 20 21 17 14 12 14 19 20 20 19 17 16 16 16 17 19 22 25 28 30 29 27 27 27 27 26 25 24 24 23 23 22 22 21 21 22 23 23 21 21
3 6 8 8 6 7 7 2 5 5 4 6 8 10 14 18 20 20 18 20 21 19 20 23 19 11 8 8 13 20 22 24 25 21 16 16 16 17 19 21 24 27 27 27 26 27 28 27 25 24 24 23 22 21 20 18 17 18 19 20 21 21 20
3 4 5 7 8 7 3 3 5 6 7 7 6 6 8 12 17 20 19 18 19 20 21 20 12 7 7 9 12 18 21 22 24 21 16 15 16 17 17 19 23 26 27 28 28 28 28 26 25 24 23 22 20 18 16 15 14 15 16 17 18 17 17
6 5 5 7 9 4 3 5 6 7 6 4 4 6 9 9 11 17 21 21 20 20 19 15 11 8 9 9 11 15 17 17 17 16 14 14 15 18 20 21 24 26 28 29 28 27 27 26 26 25 23 21 18 17 15 14 13 13 13 13 13 12 13
8 7 7 7 5 1 6 8 9 8 4 1 4 9 6 4 12 14 14 15 18 20 19 15 11 10 11 8 6 11 14 13 13 14 15 15 16 18 18 18 20 23 26 28 28 28 29 29 28 26 24 22 19 17 15 13 11 10 9 10 10 10 12
9 8 8 7 4 2 6 9 9 7 4 6 7 6 4 9 15 16 14 14 15 15 16 15 11 12 9 3 5 12 14 13 13 14 15 15 15 16 17 19 23 26 29 31 32 32 32 31 29 27 25 23 20 18 16 14 12 11 10 10 10 10 11
10 9 8 8 6 2 6 7 6 5 3 5 3 7 12 14 14 13 11 12 13 12 14 16 13 11 10 9 10 13 13 15 16 16 17 18 19 20 23 25 28 32 34 35 35 34 32 30 28 26 24 22 20 18 16 15 13 12 12 11 10 10 11
9 9 9 8 6 3 5 5 3 4 4 6 8 13 14 12 12 11 9 7 7 9 11 13 11 13 14 13 14 15 15 17 18 19 22 25 26 29 31 31 33 37 39 38 35 32 30 27 26 24 22 21 19 17 16 14 12 11 10 10 10 10 11
9 11 9 5 3 6 7 5 4 3 5 10 12 12 10 9 10 9 6 4 2 4 5 8 11 15 17 17 17 18 18 19 21 23 26 29 31 32 32 33 35 36 37 35 32 30 28 25 23 20 18 17 17 15 13 11 10 9 8 8 9 10 10
5 4 2 3 5 8 11 11 8 6 6 9 10 8 7 8 8 7 7 7 6 4 6 9 13 17 21 22 21 22 23 24 24 25 26 28 30 32 33 34 34 33 33 32 30 28 25 22 20 17 15 14 13 12 11 10 10 10 9 9 10 9 9
2 2 5 7 6 7 12 15 13 10 9 10 10 9 8 7 6 9 12 13 12 10 10 13 17 21 25 26 25 24 26 27 26 27 27 27 29 32 33 33 32 31 30 29 28 27 25 21 18 16 13 11 9 9 11 11 11 10 10 9 8 7 7
3 3 4 5 5 7 11 14 15 13 10 11 11 11 11 11 9 12 18 20 18 14 11 12 17 23 25 26 25 25 27 29 29 29 29 29 30 31 31 30 29 28 27 26 24 23 22 19 17 14 12 10 10 11 12 11 11 10 8 7 7 6 6
1 3 5 6 8 12 14 14 14 11 9 11 13 13 13 14 14 16 23 26 22 18 14 13 17 22 24 24 24 25 27 30 31 31 31 30 29 28 26 25 23 21 21 20 18 16 16 15 14 12 12 11 11 11 10 8 7 6 6 6 6 6 6
2 4 5 5 7 11 14 14 14 11 9 10 13 15 16 17 17 18 24 27 23 19 17 15 17 20 21 22 24 25 26 28 30 30 28 27 25 24 22 20 18 18 17 16 15 14 13 13 11 11 10 9 8 7 6 5 4 5 5 5 5 5 5
1 2 3 4 4 6 8 11 13 13 10 10 14 18 20 20 19 18 21 24 24 21 19 18 18 18 19 19 22 24 26 27 28 27 26 24 22 20 18 16 16 15 14 13 13 12 11 10 9 8 8 7 6 4 4 4 4 5 6 5 6 6 6
3 3 2 4 5 5 6 10 15 15 13 15 19 20 19 19 19 19 20 23 24 24 23 21 20 19 18 19 22 24 24 24 24 24 23 22 20 18 16 14 13 12 12 10 9 9 8 7 6 6 6 6 5 5 4 4 4 5 6 6 7 8 8
4 4 4 6 8 9 8 11 17 18 17 19 23 23 20 19 18 18 20 23 23 23 23 22 21 20 18 19 22 23 22 21 21 21 19 19 18 16 14 13 12 11 10 9 8 7 7 6 6 6 6 6 6 6 5 4 4 4 5 7 11 11 11
6 7 9 13 15 14 12 13 16 16 15 18 20 20 18 18 18 17 19 22 23 22 21 21 19 18 18 18 19 19 19 19 18 18 16 15 15 14 13 12 11 10 10 9 8 8 7 6 6 6 6 6 6 5 5 4 4 5 6 10 13 12 11
Wind_Direction
195 194 201 210 217 213 197 207 219 222 222 227 230 234 233 229 233 229 207 212 227 233 243 243 246 254 253 249 247 239 226 209 202 203 203 204 203 201 201 202 205 211 218 223 224 225 225 225 225 226 226 226 226 226 226 225 223 223 224 225 226 227 229
194 195 201 207 219 223 205 207 211 212 229 238 235 226 217 218 232 236 224 221 221 225 236 236 237 242 245 246 248 247 230 205 205 207 204 204 203 200 201 203 206 212 218 222 223 224 224 224 225 225 224 225 226 226 227 227 225 224 224 225 226 227 229
193 194 206 207 211 219 226 227 209 206 219 222 221 225 222 221 229 238 235 230 223 226 230 220 220 225 231 236 240 243 229 205 207 210 205 204 201 198 201 204 206 209 215 221 223 223 223 224 225 225 225 225 226 227 227 228 227 226 225 226 227 228 229
195 188 206 210 201 209 223 237 224 217 221 217 215 221 228 231 232 236 237 233 221 222 228 222 215 213 223 234 236 241 241 222 213 210 206 201 196 198 202 204 207 212 217 220 222 223 223 224 225 224 225 227 227 227 227 227 228 228 227 228 229 230 230
198 192 200 211 207 199 204 217 221 213 211 223 227 222 224 234 237 234 237 239 228 211 218 224 223 225 236 250 256 255 259 250 229 210 202 197 196 201 204 205 208 213 217 217 216 219 221 222 225 224 224 227 228 228 228 227 227 228 228 229 230 231 231
203 209 202 209 217 211 200 204 216 215 208 215 224 224 220 225 235 236 237 244 239 214 199 212 224 233 236 240 249 254 257 259 247 215 200 198 200 205 206 208 210 211 213 212 208 209 213 217 221 224 223 223 226 229 229 228 228 228 229 229 230 231 232
210 216 209 209 218 222 218 212 213 217 217 216 221 222 218 221 232 238 241 244 241 226 197 192 213 230 234 238 250 260 259 260 252 215 203 202 205 210 208 209 213 211 209 208 203 203 209 212 215 220 221 219 222 227 228 229 229 228 229 230 231 232 232
218 220 215 206 212 223 226 221 214 216 219 220 225 227 225 228 228 229 238 240 235 227 205 192 214 226 230 238 246 249 252 257 252 214 205 204 204 209 209 207 212 211 204 204 206 207 211 212 212 217 221 219 220 223 224 226 229 231 229 225 228 233 233
215 217 212 199 205 216 223 223 218 218 221 222 227 230 229 233 230 228 235 236 230 224 209 205 229 228 224 229 234 237 245 254 253 219 198 205 205 205 207 207 208 207 202 204 210 211 213 214 213 217 220 220 221 223 223 223 226 229 226 216 221 232 234
209 209 208 199 203 208 217 226 222 219 221 223 225 228 229 232 231 230 234 237 234 225 208 203 217 224 220 221 236 249 252 254 254 231 200 207 212 210 211 208 205 203 201 206 212 214 214 215 216 218 220 221 222 224 225 224 221 220 215 206 215 231 235
224 219 217 212 210 209 212 219 222 223 223 224 227 229 230 230 229 232 237 242 241 229 212 205 210 221 226 225 239 250 250 249 251 244 230 220 218 221 217 208 204 203 204 210 215 217 217 217 218 220 222 222 222 224 226 223 215 208 205 204 214 228 235
236 238 233 221 217 219 219 217 219 222 223 225 228 230 232 234 232 233 233 234 238 235 225 217 213 220 229 232 241 251 254 255 249 244 242 230 219 219 215 210 209 207 209 213 216 217 217 218 219 220 221 221 222 223 223 219 210 203 203 207 215 225 232
232 237 239 234 226 223 226 223 220 220 221 222 226 231 235 235 236 240 234 227 231 232 232 233 230 227 231 237 242 248 256 261 251 230 234 228 213 211 214 219 218 214 214 215 216 216 216 217 218 219 220 220 221 222 222 220 213 204 202 210 218 224 228
229 231 233 236 233 227 228 230 228 227 224 222 224 230 233 234 238 244 241 235 232 228 229 237 241 242 245 248 246 245 252 261 258 229 224 227 218 214 221 229 227 221 219 218 216 215 214 215 216 217 218 220 221 222 223 223 219 209 208 217 223 224 228
231 229 230 232 233 233 231 231 232 233 231 228 226 226 228 232 236 238 239 240 237 228 228 237 240 243 247 248 244 242 246 255 258 242 231 233 225 218 224 231 229 223 219 218 217 215 214 213 212 213 215 217 219 221 222 224 223 216 216 223 224 224 231
229 225 227 228 230 234 235 233 233 233 234 234 232 228 226 228 232 234 235 237 238 233 233 234 235 239 242 240 237 236 239 246 250 243 236 235 228 223 226 230 228 223 218 216 216 214 211 208 208 209 211 212 215 217 219 222 222 217 219 226 228 231 233
231 223 224 225 226 229 231 229 229 232 234 235 237 236 230 227 229 233 233 235 238 235 230 230 230 233 234 230 228 229 231 236 239 238 238 238 234 230 230 230 229 223 217 213 213 211 207 205 205 205 205 207 209 212 216 218 218 216 220 227 232 232 225
236 221 215 225 228 226 229 228 226 229 232 233 236 239 237 232 231 235 241 242 238 229 225 229 229 228 228 227 226 226 227 230 232 234 239 242 236 229 227 227 225 218 208 205 208 209 205 202 203 201 201 205 205 207 213 215 216 218 222 227 230 225 216
235 211 200 225 227 224 238 251 239 239 238 238 239 241 242 240 237 238 243 244 241 233 226 230 232 231 232 232 231 230 230 231 233 235 238 237 230 221 216 217 217 212 206 205 205 203 200 198 199 198 197 199 201 204 208 211 215 218 223 228 227 220 222
236 215 216 229 236 249 259 272 353 308 260 246 244 241 238 237 236 237 236 238 240 236 229 234 238 236 233 236 240 241 240 240 241 239 238 235 224 214 213 217 218 215 210 206 200 194 192 192 191 191 191 192 196 199 201 206 211 215 221 227 227 225 232
239 230 227 230 247 260 254 263 37 15 325 288 274 258 242 237 237 237 236 236 235 232 234 239 235 222 222 242 249 245 242 245 245 240 236 233 220 214 222 227 225 217 207 201 195 186 183 183 183 183 186 188 190 192 195 199 205 211 219 224 227 230 234
226 247 245 236 237 233 200 79 45 14 348 332 321 294 256 242 238 234 231 232 230 231 238 234 210 187 218 242 250 243 233 235 240 237 229 225 214 208 212 213 211 208 198 191 189 183 177 177 178 177 177 178 178 179 184 190 197 206 214 220 224 228 229
222 235 239 238 239 222 88 49 12 353 339 336 319 271 246 247 257 247 236 227 223 229 232 215 182 187 225 237 241 230 213 209 217 214 205 200 193 191 195 197 200 200 190 182 181 178 172 171 170 167 163 162 163 165 169 177 187 196 206 213 218 220 222
219 227 236 248 248 118 52 11 352 341 322 229 230 238 236 328 333 312 280 248 232 228 221 201 185 203 225 240 218 186 177 180 186 186 183 182 179 180 186 190 192 189 180 172 170 167 164 160 156 153 151 152 154 156 159 165 172 180 188 196 202 208 213
216 222 234 251 248 85 27 352 348 340 284 215 212 237 304 333 324 324 318 290 266 242 213 198 201 210 210 193 140 150 156 160 161 166 172 170 163 160 163 169 171 167 162 159 157 154 152 149 146 147 148 149 150 150 151 153 157 162 170 179 189 198 203
223 224 229 241 230 121 19 354 15 18 285 230 250 320 322 316 312 318 315 291 280 263 226 212 209 195 172 147 139 144 147 145 143 147 149 145 143 148 154 157 156 151 149 149 147 145 144 143 144 146 146 146 146 146 146 149 155 162 167 173 182 189 192
221 219 221 233 219 133 33 354 35 45 318 302 326 322 314 321 328 325 318 297 281 267 238 214 188 159 146 139 135 133 131 131 132 132 133 134 138 143 144 145 146 147 147 145 142 140 140 140 141 143 145 146 146 147 148 151 157 163 166 171 182 191 194
215 223 220 220 161 105 73 43 61 54 332 319 319 314 317 340 343 335 346 9 322 254 218 182 157 141 131 124 122 120 118 116 115 119 125 130 133 135 137 141 145 144 141 137 133 131 131 132 134 137 143 147 146 146 150 157 166 174 183 194 202 204 204
214 249 221 111 90 93 93 87 81 60 5 338 329 328 338 349 357 15 41 62 81 113 143 144 136 126 119 115 113 110 107 103 102 104 108 114 122 129 135 138 138 136 133 131 130 128 129 132 135 138 142 145 144 147 156 169 181 189 198 209 210 206 206
142 62 74 90 84 82 90 90 81 63 30 5 360 8 11 7 27 58 66 69 77 93 117 125 120 112 107 104 102 99 98 96 96 97 99 104 113 121 125 127 129 131 130 130 131 131 132 133 136 140 144 146 151 164 173 181 187 189 193 200 200 193 195
174 156 103 99 94 77 76 79 77 67 42 18 12 18 24 25 36 63 72 71 69 73 85 97 102 102 99 97 97 95 95 98 99 101 104 108 111 114 116 119 123 126 127 126 127 129 130 133 138 146 154 162 172 181 185 187 189 189 190 193 192 188 188
145 128 99 97 93 75 63 65 71 64 42 29 23 22 30 36 36 55 74 76 66 55 52 62 80 89 92 94 96 95 97 102 105 107 109 110 112 112 114 116 118 119 122 125 126 130 133 138 145 155 162 168 174 178 182 186 189 196 202 202 207 207 197
129 111 115 124 107 80 64 62 65 58 41 39 40 35 37 39 35 48 72 80 72 55 43 43 58 72 81 89 94 96 97 102 106 109 110 111 111 112 114 116 117 118 121 125 129 133 136 138 144 152 155 159 163 167 177 187 197 220 229 219 211 200 185
177 104 142 145 116 87 72 66 66 59 45 50 57 49 42 40 37 40 58 75 81 74 56 45 49 59 67 78 88 92 95 100 105 108 109 110 110 110 111 114 115 117 120 125 130 132 133 136 142 146 147 149 152 159 184 201 213 233 234 212 184 168 170
40 32 117 110 73 78 95 95 91 84 72 68 67 55 43 43 50 54 57 65 74 75 65 52 48 51 58 72 82 85 89 96 103 107 108 109 108 107 109 111 112 114 117 122 129 133 136 140 147 150 151 154 158 170 192 207 216 226 225 196 165 160 178
40 39 102 111 100 100 100 97 99 99 93 86 79 68 54 47 51 64 71 65 63 70 73 66 54 48 54 71 82 84 86 90 96 101 104 107 108 108 109 111 112 115 120 125 133 141 146 150 154 155 156 161 166 175 186 199 206 209 196 170 160 167 190
84 82 97 105 105 105 96 85 86 94 101 97 88 79 70 57 47 58 74 73 65 63 70 75 70 59 56 63 72 80 85 89 92 93 94 98 104 107 112 117 119 120 122 125 128 134 140 145 150 156 160 163 166 170 172 177 178 173 171 174 176 183 198